"Pseudo-MPEC" for C0MWC12

Created 2019 May 27 14:07:05 UT using Find_Orb

Click here for an explanation of pseudo-MPECs

 
 Astrometry: 
     C0MWC12  C2019 05 15.38309 20 25 05.24 -01 17 59.7    ~5FA7 20.7 GVNEOCPG96
     C0MWC12  C2019 05 15.38875 20 25 05.58 -01 17 49.2    ~5FA7 20.2 GVNEOCPG96
     C0MWC12  C2019 05 15.39440 20 25 05.94 -01 17 38.2    ~5FA7 20.8 GVNEOCPG96
     C0MWC12  C2019 05 15.40007 20 25 06.31 -01 17 26.4    ~5FA7 19.7 GVNEOCPG96
     C0MWC12  C2019 05 15.41865520 25 07.40 -01 16 50.3    ~5FAq 20.0 GVNEOCPH01
     C0MWC12  C2019 05 15.42256720 25 07.64 -01 16 42.6    ~5FAq 20.0 GVNEOCPH01
     C0MWC12  C2019 05 15.43215220 25 08.22 -01 16 23.7    ~5FAq 20.1 GVNEOCPH01
     C0MWC12  C2019 05 15.43913220 25 08.64 -01 16 09.9    ~5FAq 19.9 GVNEOCPH01
     C0MWC12  C2019 05 15.46502 20 25 10.21 -01 15 19.6    ~5FBb 19.6 GVNEOCPI52
     C0MWC12  C2019 05 15.46581 20 25 10.33 -01 15 18.0    ~5FBb 19.5 GVNEOCPI52
     C0MWC12  C2019 05 15.46660 20 25 10.30 -01 15 16.1    ~5FBb 19.7 GVNEOCPI52
     C0MWC12  C2019 05 16.46419 20 26 12.03 -00 42 17.2    ~5GBq 20.5 GVNEOCPG96
     C0MWC12  C2019 05 16.46505 20 26 12.09 -00 42 15.8    ~5GBq 20.6 GVNEOCPG96
     C0MWC12  C2019 05 16.46610 20 26 12.12 -00 42 14.3    ~5GBq 20.5 GVNEOCPG96
     C0MWC12  C2019 05 16.46685 20 26 12.17 -00 42 12.0    ~5GBq 20.6 GVNEOCPG96
     C0MWC12  C2019 05 16.46761 20 26 12.21 -00 42 10.8    ~5GBq 20.7 GVNEOCPG96
     C0MWC12  C2019 05 16.46836 20 26 12.27 -00 42 08.5    ~5GBq 21.2 GVNEOCPG96
     C0MWC12  C2019 05 16.46935 20 26 12.35 -00 42 06.6    ~5GBq 20.5 GVNEOCPG96
     C0MWC12  C2019 05 16.47057 20 26 12.43 -00 42 04.2    ~5GBq 20.4 GVNEOCPG96
     C0MWC12  C2019 05 27.45338 20 35 48.36 +05 39 09.5    ~5RBM 19.8 GVNEOCPG96
     C0MWC12  C2019 05 27.45487 20 35 48.42 +05 39 12.3    ~5RBM 19.9 GVNEOCPG96
     C0MWC12  C2019 05 27.45636 20 35 48.49 +05 39 15.8    ~5RBM 19.9 GVNEOCPG96
     C0MWC12  C2019 05 27.45785 20 35 48.56 +05 39 19.0    ~5RBM 19.7 GVNEOCPG96

Station data:
(G96) Mt. Lemmon Survey  (N32.442754 W110.788720)  US/Arizona.  Observers T.
   A. Pruyne, B. M. Africano, E. J. Christensen, G. A. Farneth, D. C. Fuls,
   A. R. Gibbs, A. D. Grauer, H. Groeller, J. A. Johnson, R. A. Kowalski, S.
   M. Larson, G. J. Leonard, R. L. Seaman, F. C. Shelly. 1.5-m reflector +
   10K CCD.
(H01) Magdalena Ridge Observatory, Socorro  (N33.984833 W107.189333)  US/New
   Mexico.  Observers W. H. Ryan, E. V. Ryan. Measurer W. H. Ryan. 2.4-m
   f/8.9 reflector + CCD.
(I52) Steward Observatory, Mt. Lemmon Station  (N32.442547 W110.788920)
   US/Arizona.  Observers T. A. Pruyne, B. M. Africano, E. J. Christensen, G.
   A. Farneth, D. C. Fuls, A. R. Gibbs, A. D. Grauer, H. Groeller, J. A.
   Johnson, R. A. Kowalski, S. M. Larson, G. J. Leonard, R. L. Seaman, F. C.
   Shelly. 1.0-m reflector + CCD.

Orbital elements:  C0MWC12
   Perihelion 2019 Jul 13.093475 +/- 0.615 TT =  2:14:36 (JD 2458677.593475)
Epoch 2019 May 27.0 TT = JDT 2458630.5   Earth MOID: 0.8006   AutoNEOCP
M 349.17776177 +/- 0.29             (J2000 ecliptic)
n   0.22980334 +/- 0.00365          Peri.   52.96632 +/- 0.33
a   2.63976427 +/- 0.0279           Node   253.65245 +/- 0.09
e   0.3529663 +/- 0.00573           Incl.   31.05179 +/- 0.07
P   4.29                   H 17.5   G  0.15   U  9.0  
q 1.70801623 +/- 0.00306    Q 3.57151230 +/- 0.0544
From 23 observations 2019 May 15-27; mean residual 0".36
Residuals in arcseconds: 
190515 G96  .39-  .82+    190515 I52  .19-  .73-    190516 G96  .06-  .51+    
190515 G96  .46-  .16+    190515 I52  .90+  .69-    190516 G96  .27+  .44+    
190515 G96  .22-  .02+    190515 I52  .27-  .35-    190516 G96  .40+  .41+    
190515 G96  .16+  .63+    190516 G96  .01+  .12+    190527 G96  .10-  .19+    
190515 H01  .01-  .23+    190516 G96  .15+  .20-    190527 G96  .11-  .24-    
190515 H01  .04+  .21+    190516 G96  .32-  .79-    190527 G96  .03+  .04+    
190515 H01  .06+  .20+    190516 G96  .23-  .02+    190527 G96  .18+  .01+    
190515 H01  .04+  .23+    190516 G96  .30-  .30-    

Ephemerides (geocentric):
Date (UTC) HH   RA              Dec         delta   r     elong  mag " sig PA
---- -- -- --  -------------   -----------  ------ ------ -----  --- ---- ---
2019 05 27 14  20 35 53.882   +05 43 54.18  1.1079 1.7459 110.7 20.3 .054 153
2019 05 27 15  20 35 55.674   +05 45 24.42  1.1076 1.7459 110.7 20.3 .065 146
2019 05 27 16  20 35 57.463   +05 46 54.69  1.1072 1.7458 110.8 20.3 .077 141
2019 05 27 17  20 35 59.249   +05 48 24.97  1.1069 1.7457 110.8 20.3 .090 138
2019 05 27 18  20 36 01.031   +05 49 55.28  1.1066 1.7457 110.8 20.3 .103 135
2019 05 27 19  20 36 02.811   +05 51 25.61  1.1063 1.7456 110.8 20.3 .116 133
2019 05 27 20  20 36 04.587   +05 52 55.96  1.1060 1.7455 110.8 20.3 .130 131
2019 05 27 21  20 36 06.361   +05 54 26.33  1.1056 1.7455 110.8 20.3 .143 130
2019 05 27 22  20 36 08.131   +05 55 56.72  1.1053 1.7454 110.9 20.3 .157 129
2019 05 27 23  20 36 09.898   +05 57 27.14  1.1050 1.7453 110.9 20.3 .171 128
2019 05 28 00  20 36 11.663   +05 58 57.58  1.1047 1.7453 110.9 20.3 .186 127
2019 05 28 01  20 36 13.424   +06 00 28.03  1.1044 1.7452 110.9 20.3 .200 126
2019 05 28 02  20 36 15.182   +06 01 58.51  1.1041 1.7451 110.9 20.3 .214 126
2019 05 28 03  20 36 16.936   +06 03 29.01  1.1037 1.7451 111.0 20.3 .229 125
2019 05 28 04  20 36 18.688   +06 04 59.54  1.1034 1.7450 111.0 20.3 .244 125
2019 05 28 05  20 36 20.437   +06 06 30.08  1.1031 1.7449 111.0 20.3 .258 124
2019 05 28 06  20 36 22.182   +06 08 00.65  1.1028 1.7449 111.0 20.3 .273 124
2019 05 28 07  20 36 23.925   +06 09 31.23  1.1025 1.7448 111.0 20.3 .288 124
2019 05 28 08  20 36 25.664   +06 11 01.84  1.1022 1.7447 111.1 20.3 .304 123
2019 05 28 09  20 36 27.401   +06 12 32.47  1.1018 1.7447 111.1 20.3 .319 123
2019 05 28 10  20 36 29.134   +06 14 03.12  1.1015 1.7446 111.1 20.3 .334 123
2019 05 28 11  20 36 30.864   +06 15 33.79  1.1012 1.7445 111.1 20.3 .350 123
2019 05 28 12  20 36 32.591   +06 17 04.48  1.1009 1.7445 111.1 20.3 .365 122
2019 05 28 13  20 36 34.315   +06 18 35.19  1.1006 1.7444 111.1 20.3 .381 122
2019 05 28 14  20 36 36.035   +06 20 05.93  1.1003 1.7443 111.2 20.3 .397 122
2019 05 28 15  20 36 37.753   +06 21 36.68  1.1000 1.7443 111.2 20.3 .413 122
2019 05 28 16  20 36 39.467   +06 23 07.46  1.0996 1.7442 111.2 20.3 .429 122
2019 05 28 17  20 36 41.179   +06 24 38.25  1.0993 1.7441 111.2 20.3 .445 121
2019 05 28 18  20 36 42.887   +06 26 09.07  1.0990 1.7441 111.2 20.3 .462 121
2019 05 28 19  20 36 44.592   +06 27 39.90  1.0987 1.7440 111.3 20.3 .478 121
2019 05 28 20  20 36 46.294   +06 29 10.76  1.0984 1.7440 111.3 20.3 .495 121
2019 05 28 21  20 36 47.993   +06 30 41.64  1.0981 1.7439 111.3 20.3 .511 121
2019 05 28 22  20 36 49.689   +06 32 12.54  1.0978 1.7438 111.3 20.3 .528 121
2019 05 28 23  20 36 51.381   +06 33 43.46  1.0974 1.7438 111.3 20.3 .545 121
2019 05 29 00  20 36 53.071   +06 35 14.40  1.0971 1.7437 111.4 20.3 .562 121
2019 05 29 01  20 36 54.757   +06 36 45.36  1.0968 1.7436 111.4 20.3 .579 121
2019 05 29 02  20 36 56.440   +06 38 16.34  1.0965 1.7436 111.4 20.3 .596 121
2019 05 29 03  20 36 58.120   +06 39 47.34  1.0962 1.7435 111.4 20.3 .613 120
2019 05 29 04  20 36 59.797   +06 41 18.36  1.0959 1.7434 111.4 20.3 .631 120
2019 05 29 05  20 37 01.471   +06 42 49.40  1.0956 1.7434 111.4 20.3 .648 120
2019 05 29 06  20 37 03.141   +06 44 20.46  1.0953 1.7433 111.5 20.3 .666 120
2019 05 29 07  20 37 04.809   +06 45 51.54  1.0950 1.7432 111.5 20.3 .683 120
2019 05 29 08  20 37 06.473   +06 47 22.64  1.0947 1.7432 111.5 20.3 .701 120
2019 05 29 09  20 37 08.134   +06 48 53.76  1.0943 1.7431 111.5 20.3 .719 120
2019 05 29 10  20 37 09.792   +06 50 24.90  1.0940 1.7430 111.5 20.3 .737 120
2019 05 29 11  20 37 11.447   +06 51 56.05  1.0937 1.7430 111.6 20.3 .755 120
2019 05 29 12  20 37 13.099   +06 53 27.23  1.0934 1.7429 111.6 20.3 .774 120
2019 05 29 13  20 37 14.747   +06 54 58.43  1.0931 1.7429 111.6 20.3 .792 120